GalileoSat-20

operational
NORAD ID: 43056 Int'l Des: 2017-079 Owner: GSAEU Country: I-EU Constellation: Galileo
MEOCIRCULAR

关于 GalileoSat-20

正在加载描述...

实时位置

正在加载3D地球...

即将过境

高度历史

Altitude vs Time

uPlot chart will show altitude changes over time

两行轨道根数

1 43056U 17079B 25298.08739251 .00000002 00000-0 00000+0 0 9994
2 43056 55.1497 227.9763 0003616 294.3863 65.5892 1.70473942 48990
Epoch: Oct 25, 2025 • Age: 25 hours

当前状态

高度 23231.3 km
速度 3.67 km/s
星下点 -53.48°S, 75.45°E
发射日期 Dec 12, 2017
运行时间 7.8 years
类型 navigation

技术详情

分类 Payload
质量 715.00 kg
干质量 700.00 kg
总质量 715.00 kg
长度 2.70 m
直径 1.60 m
跨度 14.70 m
形状 Box+2 pan
制造商 OHB
平台类型 GalileoSat
阶段状态 In Orbit
所有者/国家 GSAEU/I-EU

大型星座

Loading constellations...